QPF
0.00 0.00 0.00 0.00 0.00 0.00 0.00 0.00 0.00 0.00 0.00 0.00 0.00 0.00 0.00 0.00 0.00 0.00 0.00 0.00 0.00 0.00 0.00 0.00 0.00 0.00 0.00 0.00 0.00 0.00 0.00 0.00 0.00 0.00 0.00 0.00 0.00 0.00 0.00 0.00 0.00 0.00 0.00 0.00 0.00
0.00 0.00 0.00 0.00 0.00 0.00 0.00 0.00 0.00 0.00 0.00 0.00 0.00 0.00 0.00 0.00 0.00 0.00 0.00 0.00 0.00 0.00 0.00 0.00 0.00 0.00 0.00 0.00 0.00 0.00 0.00 0.00 0.00 0.00 0.00 0.00 0.00 0.00 0.00 0.00 0.00 0.00 0.00 0.00 0.00
0.00 0.00 0.00 0.00 0.00 0.00 0.00 0.00 0.00 0.00 0.00 0.00 0.00 0.00 0.00 0.00 0.00 0.00 0.00 0.00 0.00 0.00 0.00 0.00 0.00 0.00 0.00 0.00 0.00 0.00 0.00 0.00 0.00 0.00 0.00 0.00 0.00 0.00 0.00 0.00 0.00 0.00 0.00 0.00 0.00
0.00 0.00 0.00 0.00 0.00 0.00 0.00 0.00 0.00 0.00 0.00 0.00 0.00 0.00 0.00 0.00 0.00 0.00 0.00 0.00 0.00 0.00 0.00 0.00 0.00 0.00 0.00 0.00 0.00 0.00 0.00 0.00 0.00 0.00 0.00 0.00 0.00 0.00 0.00 0.00 0.00 0.00 0.00 0.00 0.00
0.00 0.00 0.00 0.00 0.00 0.00 0.00 0.00 0.00 0.00 0.00 0.00 0.00 0.00 0.00 0.00 0.00 0.00 0.00 0.00 0.00 0.00 0.00 0.00 0.00 0.00 0.00 0.00 0.00 0.00 0.00 0.00 0.00 0.00 0.00 0.00 0.00 0.00 0.00 0.00 0.00 0.00 0.00 0.00 0.00
0.00 0.00 0.00 0.00 0.00 0.00 0.00 0.00 0.00 0.00 0.00 0.00 0.00 0.00 0.00 0.00 0.00 0.00 0.00 0.00 0.00 0.00 0.00 0.00 0.00 0.00 0.00 0.00 0.00 0.00 0.00 0.00 0.00 0.00 0.00 0.00 0.00 0.00 0.00 0.00 0.00 0.00 0.00 0.00 0.00
0.00 0.00 0.00 0.00 0.00 0.00 0.00 0.00 0.00 0.00 0.00 0.00 0.00 0.00 0.00 0.00 0.00 0.00 0.00 0.00 0.00 0.00 0.00 0.00 0.00 0.00 0.00 0.00 0.00 0.00 0.00 0.00 0.00 0.00 0.00 0.00 0.00 0.00 0.00 0.00 0.00 0.00 0.00 0.00 0.00
0.00 0.00 0.00 0.00 0.00 0.00 0.00 0.00 0.00 0.00 0.00 0.00 0.00 0.00 0.00 0.00 0.00 0.00 0.00 0.00 0.00 0.00 0.00 0.00 0.00 0.00 0.00 0.00 0.00 0.00 0.00 0.00 0.00 0.00 0.00 0.00 0.00 0.00 0.00 0.00 0.00 0.00 0.00 0.00 0.00
0.00 0.00 0.00 0.00 0.00 0.00 0.00 0.00 0.00 0.00 0.00 0.00 0.00 0.00 0.00 0.00 0.00 0.00 0.00 0.00 0.00 0.00 0.00 0.00 0.00 0.00 0.00 0.00 0.00 0.00 0.00 0.00 0.00 0.00 0.00 0.00 0.00 0.00 0.00 0.00 0.00 0.00 0.00 0.00 0.00
0.00 0.00 0.00 0.00 0.00 0.00 0.00 0.00 0.00 0.00 0.00 0.00 0.00 0.00 0.00 0.00 0.00 0.00 0.00 0.00 0.00 0.00 0.00 0.00 0.00 0.00 0.00 0.00 0.00 0.00 0.00 0.00 0.00 0.00 0.00 0.00 0.00 0.00 0.00 0.00 0.00 0.00 0.00 0.00 0.00
0.00 0.00 0.00 0.00 0.00 0.00 0.00 0.00 0.00 0.00 0.00 0.00 0.00 0.00 0.00 0.00 0.00 0.00 0.00 0.00 0.00 0.00 0.00 0.00 0.00 0.00 0.00 0.00 0.00 0.00 0.00 0.00 0.00 0.00 0.00 0.00 0.00 0.00 0.00 0.00 0.00 0.00 0.00 0.00 0.00
0.00 0.00 0.00 0.00 0.00 0.00 0.00 0.00 0.00 0.00 0.00 0.00 0.00 0.00 0.00 0.00 0.00 0.00 0.00 0.00 0.00 0.00 0.00 0.00 0.00 0.00 0.00 0.00 0.00 0.00 0.00 0.00 0.00 0.00 0.00 0.00 0.00 0.00 0.00 0.00 0.00 0.00 0.00 0.00 0.00
0.00 0.00 0.00 0.00 0.00 0.00 0.00 0.00 0.00 0.00 0.00 0.00 0.00 0.00 0.00 0.00 0.00 0.00 0.00 0.00 0.00 0.00 0.00 0.00 0.00 0.00 0.00 0.00 0.00 0.00 0.00 0.00 0.00 0.00 0.00 0.00 0.00 0.00 0.00 0.00 0.00 0.00 0.00 0.00 0.00
0.00 0.00 0.00 0.00 0.00 0.00 0.00 0.00 0.00 0.00 0.00 0.00 0.00 0.00 0.00 0.00 0.00 0.00 0.00 0.00 0.00 0.00 0.00 0.00 0.00 0.00 0.00 0.00 0.00 0.00 0.00 0.00 0.00 0.00 0.00 0.00 0.00 0.00 0.00 0.00 0.00 0.00 0.00 0.00 0.00
0.00 0.00 0.00 0.00 0.00 0.00 0.00 0.00 0.00 0.00 0.00 0.00 0.00 0.00 0.00 0.00 0.00 0.00 0.00 0.00 0.00 0.00 0.00 0.00 0.00 0.00 0.00 0.00 0.00 0.00 0.00 0.00 0.00 0.00 0.00 0.00 0.00 0.00 0.00 0.00 0.00 0.00 0.00 0.00 0.00
0.03 0.02 0.00 0.00 0.00 0.00 0.00 0.00 0.00 0.00 0.00 0.00 0.00 0.00 0.00 0.00 0.00 0.00 0.00 0.00 0.00 0.00 0.00 0.00 0.00 0.00 0.00 0.00 0.00 0.00 0.00 0.00 0.00 0.00 0.00 0.00 0.00 0.00 0.00 0.00 0.00 0.00 0.00 0.00 0.00
0.10 0.13 0.06 0.03 0.00 0.00 0.00 0.00 0.00 0.00 0.00 0.00 0.00 0.00 0.00 0.00 0.00 0.00 0.00 0.00 0.00 0.00 0.00 0.00 0.00 0.00 0.00 0.00 0.00 0.00 0.00 0.00 0.00 0.00 0.00 0.00 0.00 0.00 0.00 0.00 0.00 0.00 0.00 0.00 0.00
0.08 0.10 0.05 0.04 0.02 0.00 0.00 0.00 0.00 0.00 0.00 0.00 0.00 0.00 0.00 0.00 0.00 0.00 0.00 0.00 0.00 0.00 0.00 0.00 0.00 0.00 0.00 0.00 0.00 0.00 0.00 0.00 0.00 0.00 0.00 0.00 0.00 0.00 0.00 0.00 0.00 0.00 0.00 0.00 0.00
0.14 0.16 0.12 0.05 0.03 0.02 0.00 0.00 0.00 0.00 0.00 0.00 0.00 0.00 0.00 0.00 0.00 0.00 0.00 0.00 0.00 0.00 0.00 0.00 0.00 0.00 0.00 0.00 0.00 0.00 0.00 0.00 0.00 0.00 0.00 0.00 0.00 0.00 0.00 0.00 0.00 0.00 0.00 0.00 0.00
0.08 0.11 0.11 0.09 0.14 0.13 0.04 0.00 0.00 0.00 0.00 0.00 0.00 0.00 0.00 0.00 0.00 0.00 0.00 0.00 0.00 0.00 0.00 0.00 0.00 0.00 0.00 0.00 0.00 0.00 0.00 0.00 0.00 0.00 0.00 0.00 0.00 0.00 0.00 0.00 0.00 0.00 0.00 0.00 0.00
0.09 0.09 0.06 0.12 0.26 0.28 0.14 0.00 0.00 0.00 0.00 0.00 0.00 0.00 0.00 0.00 0.00 0.00 0.00 0.00 0.00 0.00 0.00 0.00 0.00 0.00 0.00 0.00 0.00 0.00 0.00 0.00 0.00 0.00 0.00 0.00 0.00 0.00 0.00 0.00 0.00 0.00 0.00 0.00 0.00
0.16 0.10 0.06 0.09 0.35 0.35 0.08 0.00 0.00 0.00 0.00 0.00 0.00 0.00 0.00 0.00 0.00 0.00 0.00 0.00 0.00 0.00 0.00 0.00 0.00 0.00 0.00 0.00 0.00 0.00 0.00 0.00 0.00 0.00 0.00 0.00 0.00 0.00 0.00 0.00 0.00 0.00 0.00 0.00 0.00
0.17 0.13 0.13 0.14 0.22 0.12 0.01 0.00 0.00 0.00 0.00 0.00 0.00 0.00 0.00 0.00 0.00 0.00 0.00 0.00 0.00 0.00 0.00 0.00 0.00 0.00 0.00 0.00 0.00 0.00 0.00 0.00 0.00 0.00 0.00 0.00 0.00 0.00 0.00 0.00 0.00 0.00 0.00 0.00 0.00
0.19 0.09 0.24 0.34 0.15 0.02 0.01 0.01 0.00 0.00 0.00 0.00 0.00 0.00 0.00 0.00 0.00 0.00 0.00 0.00 0.00 0.00 0.00 0.00 0.00 0.00 0.00 0.00 0.00 0.00 0.00 0.00 0.00 0.00 0.00 0.00 0.00 0.00 0.00 0.00 0.00 0.00 0.00 0.00 0.00
0.16 0.08 0.06 0.12 0.09 0.02 0.01 0.01 0.00 0.00 0.00 0.00 0.00 0.00 0.00 0.00 0.00 0.00 0.00 0.00 0.00 0.00 0.00 0.00 0.00 0.00 0.00 0.00 0.00 0.00 0.00 0.00 0.00 0.00 0.00 0.00 0.00 0.00 0.00 0.00 0.00 0.00 0.00 0.00 0.00
0.22 0.04 0.01 0.02 0.01 0.04 0.03 0.02 0.00 0.00 0.00 0.00 0.00 0.00 0.00 0.00 0.00 0.00 0.00 0.00 0.00 0.00 0.00 0.00 0.00 0.00 0.00 0.00 0.00 0.00 0.00 0.00 0.00 0.00 0.00 0.00 0.00 0.00 0.00 0.00 0.00 0.00 0.00 0.00 0.00
0.11 0.10 0.05 0.02 0.01 0.05 0.05 0.01 0.00 0.00 0.01 0.00 0.00 0.00 0.00 0.00 0.00 0.00 0.00 0.00 0.00 0.00 0.00 0.00 0.00 0.00 0.00 0.00 0.00 0.00 0.00 0.00 0.00 0.00 0.00 0.00 0.00 0.00 0.00 0.00 0.00 0.00 0.00 0.00 0.00
MSLP
1015.90 1015.52 1015.14 1014.71 1014.20 1013.87 1013.67 1013.47 1013.27 1013.09 1012.80 1012.60 1012.31 1012.08 1011.96 1011.67 1011.40 1010.98 1010.44 1010.97 1010.53 1010.42 1010.33 1009.37 1009.07 1008.80 1008.66 1008.23 1008.45 1008.03 1006.73 1005.00 1004.66 1004.90 1005.09 1006.83 1007.19 1007.80 1008.09 1007.81 1008.31 1008.59 1008.69 1010.12 1010.80
1015.75 1015.55 1015.18 1014.89 1014.39 1013.93 1013.57 1013.39 1013.21 1012.98 1012.86 1012.68 1012.40 1012.03 1011.93 1011.66 1010.62 1010.35 1011.21 1011.02 1010.73 1010.41 1009.70 1008.99 1008.55 1008.65 1008.31 1008.20 1008.34 1007.88 1006.72 1005.68 1006.15 1006.08 1006.67 1007.49 1007.59 1007.83 1008.24 1008.00 1008.36 1009.10 1010.05 1010.60 1010.82
1015.88 1015.44 1015.18 1014.94 1014.59 1014.18 1013.71 1013.26 1013.09 1012.91 1012.68 1012.50 1012.40 1012.18 1011.94 1011.67 1010.29 1009.94 1011.09 1011.00 1010.79 1010.41 1009.53 1009.18 1008.85 1008.54 1008.16 1008.28 1008.18 1007.70 1007.17 1007.07 1007.54 1007.94 1008.00 1008.21 1008.47 1008.64 1008.30 1007.88 1007.91 1008.66 1009.69 1010.48 1010.74
1015.88 1015.59 1015.06 1014.72 1014.59 1014.32 1013.91 1013.35 1012.92 1012.74 1012.63 1012.41 1012.27 1012.27 1012.08 1011.31 1010.15 1010.51 1011.17 1011.03 1010.79 1010.13 1009.62 1009.17 1008.86 1008.62 1008.27 1008.32 1008.23 1008.43 1008.24 1008.30 1008.56 1009.30 1009.23 1009.01 1008.95 1008.86 1008.66 1008.12 1008.16 1008.80 1009.59 1010.47 1010.71
1015.34 1015.50 1015.26 1014.70 1014.47 1014.31 1014.00 1013.46 1012.98 1012.66 1012.53 1012.50 1012.34 1012.26 1012.14 1010.69 1009.76 1010.66 1011.05 1010.69 1010.36 1010.04 1009.53 1009.09 1008.70 1008.41 1008.30 1008.24 1008.92 1008.79 1008.58 1009.27 1009.48 1009.97 1009.88 1009.83 1009.51 1009.13 1008.71 1008.79 1009.32 1009.91 1010.42 1010.53 1010.74
1015.03 1014.97 1015.26 1014.96 1014.49 1014.18 1013.97 1013.49 1013.00 1012.68 1012.50 1012.44 1012.36 1012.33 1011.69 1010.49 1010.51 1010.64 1010.65 1010.45 1010.25 1009.95 1009.74 1009.46 1008.74 1008.74 1008.49 1008.80 1009.08 1008.97 1009.20 1009.42 1009.79 1009.88 1010.04 1010.08 1009.45 1009.56 1008.48 1008.84 1009.59 1010.20 1010.35 1010.63 1010.96
1014.60 1014.73 1014.67 1014.95 1014.65 1014.13 1013.85 1013.48 1012.93 1012.66 1012.58 1012.48 1012.33 1012.10 1011.07 1010.28 1010.56 1010.56 1010.64 1010.62 1010.58 1010.25 1009.90 1009.94 1009.61 1009.36 1009.09 1009.23 1009.67 1009.57 1009.53 1009.49 1009.53 1009.74 1009.83 1010.18 1009.48 1008.70 1008.52 1008.85 1009.30 1009.92 1010.23 1010.68 1011.16
1014.49 1014.28 1014.48 1014.52 1014.52 1014.10 1013.59 1013.30 1012.77 1012.62 1012.51 1012.42 1012.19 1011.56 1010.02 1010.47 1010.51 1010.68 1010.47 1010.47 1010.54 1010.52 1010.43 1010.37 1010.06 1009.73 1009.40 1009.82 1009.65 1009.38 1009.15 1008.47 1008.52 1009.58 1010.04 1010.47 1008.25 1007.80 1008.26 1008.83 1008.90 1009.56 1009.90 1010.53 1011.03
1014.24 1014.05 1014.16 1014.23 1014.17 1013.80 1013.38 1012.97 1012.61 1012.44 1012.44 1012.22 1011.91 1010.98 1009.72 1010.84 1010.56 1010.36 1010.33 1010.13 1010.48 1010.53 1010.65 1010.63 1010.21 1009.65 1009.99 1009.21 1008.74 1008.56 1007.33 1007.53 1008.68 1009.36 1009.60 1009.95 1008.39 1008.12 1008.67 1008.77 1008.80 1008.98 1009.38 1009.62 1010.39
1013.92 1013.97 1013.79 1013.88 1014.04 1013.46 1013.02 1012.71 1012.43 1012.36 1012.17 1011.60 1011.11 1010.92 1010.11 1009.69 1010.17 1010.35 1010.48 1010.41 1010.28 1010.38 1010.44 1010.35 1009.80 1009.25 1009.03 1008.42 1007.09 1006.62 1007.28 1007.52 1007.65 1009.09 1009.62 1009.12 1008.57 1008.21 1008.59 1008.67 1008.62 1008.63 1008.84 1009.19 1010.12
1013.40 1013.51 1013.58 1013.73 1013.75 1013.46 1012.74 1012.01 1012.19 1011.66 1011.00 1009.36 1009.05 1008.86 1009.27 1009.95 1010.44 1010.15 1010.29 1010.33 1010.16 1010.06 1009.32 1009.59 1009.22 1008.03 1007.49 1008.10 1008.10 1007.80 1007.66 1007.67 1007.87 1009.04 1009.63 1008.69 1008.00 1007.47 1007.53 1007.95 1008.03 1008.32 1008.58 1009.08 1010.06
1013.10 1012.97 1013.17 1013.51 1013.42 1013.67 1012.75 1011.66 1011.52 1012.24 1010.17 1009.12 1009.21 1009.26 1009.38 1009.51 1009.69 1009.83 1010.28 1010.06 1009.70 1009.02 1009.13 1009.35 1008.45 1008.10 1008.62 1008.98 1008.88 1008.61 1008.27 1007.87 1008.29 1009.33 1009.54 1008.18 1007.34 1006.95 1007.13 1007.72 1008.29 1008.17 1008.39 1009.28 1010.23
1012.94 1012.67 1012.35 1013.06 1013.26 1013.29 1012.07 1011.57 1012.17 1012.18 1010.83 1008.59 1008.68 1008.68 1009.20 1009.53 1008.78 1009.07 1009.90 1009.50 1009.08 1008.68 1008.77 1008.34 1008.58 1009.17 1009.29 1009.30 1009.12 1008.88 1008.84 1008.68 1009.12 1009.14 1008.61 1008.36 1006.51 1006.74 1007.88 1008.50 1008.94 1008.74 1008.92 1009.76 1010.61
1012.27 1012.39 1012.31 1012.36 1013.43 1012.67 1011.98 1011.99 1012.26 1012.52 1011.03 1008.51 1008.46 1007.96 1008.81 1008.92 1008.97 1008.77 1009.40 1009.36 1009.26 1008.60 1008.76 1008.54 1009.20 1009.65 1009.67 1009.45 1009.47 1009.14 1009.87 1010.02 1009.89 1009.40 1007.87 1008.51 1006.51 1006.29 1007.38 1008.16 1008.79 1009.15 1009.42 1010.05 1010.72
1011.67 1011.96 1012.22 1011.69 1012.06 1012.51 1012.43 1012.49 1012.40 1012.37 1010.68 1007.80 1008.12 1008.48 1008.15 1008.47 1008.70 1009.50 1009.81 1009.70 1008.92 1008.87 1009.23 1009.13 1009.58 1009.88 1009.82 1009.68 1010.01 1010.28 1010.66 1010.54 1010.33 1009.56 1008.79 1007.81 1007.65 1005.86 1006.85 1007.57 1008.37 1008.93 1009.56 1010.32 1010.95
1011.10 1011.53 1011.90 1012.26 1011.70 1012.06 1012.41 1012.76 1012.48 1011.64 1008.84 1007.61 1007.92 1008.03 1008.16 1008.29 1008.55 1009.39 1009.57 1009.78 1009.60 1009.42 1009.41 1009.44 1010.37 1010.22 1010.11 1010.88 1010.85 1011.03 1010.86 1010.67 1010.42 1009.57 1008.73 1007.67 1007.65 1005.65 1006.18 1006.43 1007.57 1008.74 1009.61 1010.33 1011.06
1010.35 1010.83 1011.18 1011.35 1010.92 1011.84 1012.41 1012.46 1011.95 1009.57 1007.23 1006.97 1006.88 1007.25 1007.20 1007.54 1008.16 1008.49 1008.90 1008.91 1008.41 1008.99 1008.81 1009.68 1010.04 1010.77 1011.01 1011.10 1011.49 1011.32 1010.68 1009.95 1009.72 1009.29 1008.14 1008.27 1007.72 1004.95 1005.83 1006.57 1006.86 1008.28 1009.32 1010.26 1010.95
1009.67 1010.21 1010.23 1010.76 1010.80 1011.68 1012.25 1011.76 1009.77 1005.60 1005.22 1005.82 1006.10 1006.54 1006.50 1006.76 1007.33 1007.86 1007.98 1007.83 1007.85 1007.93 1008.05 1008.70 1009.73 1010.62 1011.08 1010.97 1010.67 1010.99 1010.82 1010.23 1009.43 1008.47 1007.69 1008.28 1006.33 1005.28 1006.19 1007.18 1007.51 1008.22 1009.22 1010.15 1010.85
1008.98 1009.41 1010.05 1010.54 1010.80 1011.10 1011.53 1010.25 1006.46 1005.09 1003.81 1005.16 1006.05 1005.91 1005.98 1006.44 1007.07 1007.45 1007.27 1006.74 1006.66 1007.69 1007.96 1008.49 1009.74 1011.29 1011.63 1011.79 1011.82 1011.51 1011.47 1011.63 1010.60 1009.78 1008.63 1005.94 1005.34 1006.16 1007.01 1007.55 1008.09 1008.49 1009.20 1009.93 1010.58
1008.77 1009.13 1009.22 1010.05 1010.49 1011.35 1010.74 1008.01 1005.85 1004.64 1004.45 1004.40 1004.17 1004.24 1004.32 1005.51 1006.59 1006.97 1006.58 1005.98 1006.92 1007.54 1008.34 1008.71 1010.22 1011.43 1012.28 1012.41 1012.50 1012.18 1012.10 1012.01 1011.73 1010.48 1008.37 1005.80 1005.29 1004.74 1006.36 1007.19 1007.98 1008.52 1009.07 1009.69 1010.21
1008.22 1008.93 1008.65 1009.43 1010.57 1010.92 1009.62 1006.99 1005.73 1004.91 1004.98 1004.38 1003.70 1003.64 1003.71 1004.47 1005.54 1006.24 1006.21 1006.82 1007.05 1008.14 1008.90 1009.41 1009.98 1012.03 1012.49 1012.14 1011.65 1012.75 1012.35 1012.55 1012.38 1011.70 1009.79 1007.30 1005.29 1005.68 1005.91 1006.78 1007.56 1008.27 1008.84 1009.40 1009.90
1007.55 1008.00 1008.85 1009.05 1010.45 1010.03 1008.35 1006.42 1005.35 1004.96 1005.09 1004.85 1004.43 1003.69 1003.61 1004.37 1005.10 1005.85 1005.95 1006.45 1007.27 1008.40 1008.87 1009.80 1010.59 1011.12 1011.44 1012.42 1012.70 1012.41 1012.52 1012.76 1012.42 1012.25 1011.14 1009.78 1006.87 1006.54 1006.99 1007.48 1007.68 1008.04 1008.60 1009.18 1009.72
1006.95 1007.93 1008.99 1009.10 1008.61 1008.29 1006.95 1006.32 1005.68 1005.36 1004.99 1004.92 1004.65 1004.35 1004.29 1004.57 1005.53 1005.56 1006.14 1007.49 1007.93 1008.39 1008.67 1009.79 1010.57 1011.18 1011.91 1012.93 1013.26 1013.14 1012.93 1013.32 1013.12 1012.25 1010.57 1009.29 1006.69 1007.18 1007.52 1007.90 1008.24 1008.44 1008.72 1009.21 1009.59
1006.85 1007.99 1009.00 1008.91 1008.33 1007.20 1006.42 1005.96 1005.83 1005.58 1005.08 1004.81 1004.78 1005.00 1005.01 1005.01 1005.53 1005.88 1006.79 1008.13 1008.62 1008.89 1009.69 1009.78 1010.32 1010.33 1010.35 1011.28 1011.82 1012.84 1012.75 1012.91 1012.70 1011.62 1009.47 1007.94 1006.77 1006.68 1007.16 1007.52 1007.85 1008.24 1008.50 1008.75 1009.03
1005.72 1005.33 1005.60 1007.20 1007.22 1006.75 1005.88 1005.98 1005.51 1005.60 1005.57 1005.13 1005.27 1004.85 1004.78 1005.23 1005.64 1006.09 1006.95 1008.46 1009.22 1009.69 1010.00 1010.47 1010.70 1010.67 1010.89 1011.14 1011.70 1011.85 1012.24 1012.48 1012.01 1010.45 1009.31 1007.26 1006.53 1005.98 1006.39 1006.94 1007.20 1007.57 1008.19 1008.81 1009.25
1004.72 1004.79 1005.81 1005.87 1005.79 1006.57 1005.52 1004.82 1004.65 1004.88 1005.46 1004.80 1004.55 1004.53 1004.60 1004.68 1004.66 1005.09 1006.25 1007.44 1008.04 1009.73 1010.49 1011.18 1011.08 1011.08 1010.80 1010.92 1011.16 1011.18 1010.97 1011.33 1011.24 1010.78 1009.75 1008.69 1007.28 1007.13 1007.05 1007.24 1007.71 1008.11 1008.66 1009.04 1009.27
1003.62 1004.29 1004.60 1004.90 1005.33 1005.56 1004.86 1004.13 1004.08 1004.60 1004.99 1004.57 1004.44 1004.48 1004.50 1004.50 1004.75 1004.71 1005.65 1006.51 1007.24 1008.81 1010.33 1011.16 1011.33 1011.37 1010.73 1011.03 1010.88 1010.00 1008.21 1008.59 1009.16 1009.30 1009.39 1008.98 1007.02 1007.21 1007.23 1007.68 1008.17 1008.60 1008.95 1009.11 1009.30
Thickness
5624 5626 5628 5632 5637 5640 5641 5643 5644 5646 5648 5650 5652 5654 5655 5657 5659 5663 5662 5659 5662 5662 5663 5670 5670 5671 5672 5672 5671 5674 5669 5682 5690 5689 5694 5689 5682 5686 5689 5690 5689 5691 5693 5687 5685
5620 5621 5624 5626 5631 5635 5638 5639 5640 5642 5643 5645 5647 5651 5651 5653 5663 5661 5655 5655 5656 5658 5662 5664 5664 5663 5662 5662 5662 5660 5664 5676 5680 5685 5676 5675 5677 5679 5675 5679 5678 5675 5676 5676 5678
5614 5617 5618 5621 5623 5627 5631 5635 5636 5637 5640 5641 5643 5645 5647 5649 5659 5661 5653 5652 5653 5655 5661 5661 5661 5659 5657 5657 5656 5660 5655 5664 5661 5663 5667 5664 5661 5667 5667 5670 5677 5671 5669 5668 5670
5609 5611 5614 5616 5617 5620 5624 5628 5632 5634 5635 5638 5640 5640 5642 5649 5653 5655 5649 5649 5650 5653 5655 5655 5655 5650 5649 5645 5654 5642 5650 5650 5650 5645 5646 5649 5657 5654 5659 5667 5674 5670 5667 5661 5661
5606 5605 5607 5612 5611 5612 5616 5621 5625 5629 5631 5632 5635 5636 5638 5647 5654 5649 5646 5648 5649 5650 5650 5650 5650 5651 5644 5648 5641 5639 5645 5638 5639 5634 5636 5640 5640 5646 5652 5659 5657 5654 5651 5652 5654
5602 5601 5599 5603 5607 5607 5608 5613 5619 5623 5626 5628 5629 5630 5636 5640 5646 5645 5644 5646 5646 5646 5644 5645 5649 5649 5647 5640 5635 5638 5635 5633 5631 5631 5631 5628 5637 5636 5650 5653 5646 5642 5644 5646 5645
5594 5595 5595 5593 5599 5603 5603 5605 5612 5616 5618 5620 5623 5627 5634 5641 5640 5641 5640 5639 5639 5640 5639 5639 5641 5638 5640 5631 5629 5627 5622 5625 5626 5627 5627 5624 5625 5633 5647 5645 5641 5637 5638 5638 5636
5583 5587 5588 5587 5589 5595 5600 5600 5605 5608 5611 5614 5617 5624 5633 5635 5635 5635 5637 5636 5636 5635 5634 5633 5635 5633 5632 5627 5624 5621 5622 5624 5632 5621 5618 5612 5628 5642 5643 5636 5637 5634 5634 5630 5629
5573 5576 5576 5580 5581 5587 5593 5597 5599 5601 5603 5607 5613 5620 5631 5627 5627 5631 5633 5632 5630 5630 5627 5627 5628 5628 5621 5624 5624 5624 5635 5632 5616 5617 5615 5609 5622 5633 5629 5629 5630 5632 5631 5632 5627
5559 5562 5567 5568 5570 5579 5585 5591 5593 5594 5597 5604 5610 5609 5619 5624 5624 5624 5625 5626 5624 5623 5620 5620 5623 5625 5626 5627 5636 5641 5626 5625 5626 5611 5604 5609 5612 5624 5621 5622 5624 5628 5629 5629 5620
5546 5550 5553 5556 5559 5566 5578 5587 5590 5593 5597 5613 5618 5619 5617 5616 5615 5617 5619 5618 5619 5618 5620 5619 5620 5626 5638 5629 5626 5623 5622 5618 5622 5608 5595 5606 5614 5623 5628 5625 5625 5624 5624 5622 5615
5530 5538 5542 5543 5549 5550 5566 5580 5584 5577 5596 5606 5606 5607 5610 5612 5607 5611 5612 5610 5612 5617 5617 5612 5619 5627 5620 5613 5610 5610 5612 5619 5616 5600 5593 5609 5616 5625 5627 5620 5616 5619 5620 5614 5608
5515 5523 5532 5532 5536 5542 5561 5569 5565 5565 5579 5602 5601 5602 5600 5602 5609 5608 5605 5608 5610 5614 5613 5619 5617 5609 5607 5605 5605 5609 5606 5609 5601 5600 5605 5599 5618 5614 5607 5605 5603 5610 5612 5606 5598
5504 5511 5516 5521 5522 5536 5548 5552 5551 5551 5566 5596 5590 5596 5596 5600 5596 5607 5603 5602 5600 5608 5608 5613 5606 5599 5598 5601 5603 5606 5595 5590 5588 5591 5608 5597 5617 5616 5606 5601 5598 5598 5600 5597 5592
5495 5498 5502 5513 5518 5523 5531 5533 5537 5542 5553 5592 5588 5591 5595 5593 5595 5588 5591 5591 5598 5599 5596 5600 5593 5591 5594 5599 5595 5590 5583 5582 5580 5586 5589 5598 5590 5617 5607 5599 5595 5595 5593 5587 5583
5487 5486 5490 5493 5506 5509 5514 5517 5525 5537 5547 5575 5580 5581 5581 5585 5585 5580 5583 5585 5587 5586 5587 5592 5584 5588 5592 5580 5582 5578 5577 5576 5574 5581 5578 5593 5585 5610 5602 5606 5599 5591 5584 5580 5575
5480 5480 5481 5487 5500 5495 5497 5506 5510 5528 5569 5571 5577 5579 5583 5582 5580 5580 5577 5579 5590 5576 5586 5580 5581 5576 5577 5575 5570 5571 5577 5580 5578 5571 5588 5574 5573 5617 5608 5600 5603 5588 5581 5576 5571
5471 5471 5476 5478 5484 5485 5483 5494 5500 5574 5580 5575 5575 5576 5579 5585 5581 5578 5579 5583 5589 5589 5593 5587 5582 5572 5572 5575 5579 5572 5572 5576 5573 5593 5597 5565 5585 5610 5600 5590 5591 5586 5578 5571 5565
5463 5465 5465 5470 5472 5475 5477 5482 5538 5560 5582 5567 5565 5569 5573 5576 5575 5573 5578 5589 5595 5584 5582 5581 5576 5560 5560 5561 5562 5563 5560 5553 5558 5558 5564 5604 5605 5592 5580 5577 5575 5574 5571 5565 5559
5450 5453 5461 5461 5463 5459 5464 5500 5534 5552 5560 5567 5573 5580 5578 5573 5566 5566 5578 5591 5581 5579 5575 5579 5560 5556 5545 5550 5549 5552 5552 5551 5542 5550 5567 5604 5596 5607 5580 5573 5567 5565 5562 5558 5552
5439 5442 5454 5451 5447 5443 5459 5500 5524 5538 5541 5554 5569 5571 5583 5577 5569 5564 5572 5572 5575 5564 5563 5562 5563 5544 5540 5548 5560 5538 5547 5540 5534 5536 5562 5580 5604 5591 5586 5574 5565 5562 5558 5550 5546
5433 5442 5436 5440 5426 5430 5464 5500 5518 5523 5530 5538 5548 5569 5574 5571 5564 5563 5570 5571 5568 5557 5556 5552 5541 5554 5554 5532 5531 5545 5543 5538 5547 5530 5526 5531 5569 5574 5565 5559 5560 5560 5551 5545 5537
5424 5422 5418 5421 5441 5447 5479 5486 5499 5507 5518 5525 5536 5549 5557 5560 5540 5562 5565 5553 5553 5552 5553 5546 5544 5539 5534 5524 5520 5522 5530 5511 5503 5523 5539 5545 5574 5559 5550 5545 5546 5544 5540 5534 5528
5407 5413 5402 5403 5419 5465 5473 5477 5478 5494 5508 5517 5525 5530 5536 5543 5545 5550 5550 5536 5540 5543 5533 5541 5544 5549 5565 5537 5525 5504 5511 5519 5518 5530 5547 5555 5561 5558 5547 5543 5542 5537 5534 5530 5526
5403 5416 5433 5421 5425 5442 5463 5458 5473 5473 5490 5506 5503 5522 5529 5523 5533 5535 5540 5519 5524 5525 5530 5518 5522 5534 5533 5533 5517 5520 5499 5498 5502 5529 5540 5563 5562 5562 5553 5544 5541 5536 5528 5518 5510
5399 5414 5408 5424 5440 5422 5445 5456 5481 5485 5473 5493 5508 5519 5525 5512 5536 5534 5529 5523 5522 5516 5502 5489 5514 5517 5524 5526 5521 5518 5528 5505 5499 5510 5521 5529 5540 5539 5538 5533 5525 5520 5512 5505 5499
5403 5409 5412 5420 5426 5421 5440 5472 5478 5483 5476 5495 5503 5508 5511 5519 5525 5533 5530 5529 5530 5504 5490 5488 5499 5502 5529 5504 5502 5519 5544 5539 5532 5519 5508 5503 5533 5533 5530 5521 5511 5505 5500 5494 5489